Cedar Rapids, IA

8:57 PM CST on December 10, 2019 (GMT -0600)
The Eastern Iowa Airport

Weather History for KCID - August, 2019

Change the Weather History Date:

Thursday, August 1, 2019

  Actual Average Record
Temperature  
Mean Temperature 70 °F 72 °F  
Max Temperature 82 °F 83 °F 102 °F (1917)
Min Temperature 57 °F 62 °F 48 °F (1895)
Degree Days  
Heating Degree Days 0 0  
Month to date heating degree days 0 0  
Since 1 June heating degree days 11 33  
Since 1 July heating degree days 0 4  
Cooling Degree Days 5 8  
Month to date cooling degree days 5 8  
Year to date cooling degree days 507 475  
Since 1 June cooling degree days 479 426  
Growing Degree Days 19 (Base 50)    
Moisture  
Dew Point 59 °F    
Average Humidity 71    
Maximum Humidity 93    
Minimum Humidity 49    
Precipitation  
Precipitation 0.00 in 0.14 in 4.80 in (1972)
Month to date precipitation 0.00 0.14  
Year to date precipitation 22.59 20.96  
Sea Level Pressure  
Sea Level Pressure 30.16 in    
Wind  
Wind Speed 5 mph (ESE)    
Max Wind Speed 12 mph    
Max Gust Speed 16 mph    
Visibility 10 miles    
Events      
T = Trace of Precipitation, MM = Missing Value Source: NWS Daily Summary

Daily Weather History Graph

Daily Weather History Graph

Search for Another Location

Airport or City:

Astronomy

Aug. 01, 2019 Rise Set
Actual Time 6:00 AM CDT 8:25 PM CDT
Civil Twilight 5:28 AM CDT 8:56 PM CDT
Nautical Twilight 4:49 AM CDT 9:35 PM CDT
Astronomical Twilight 4:06 AM CDT 10:18 PM CDT
Moon 6:25 AM CDT (8/1) 9:12 PM CDT (8/1)
Length of Visible Light 15h 27m
Length of Day
14h 24m
New Moon, 1% of the Moon is Illuminated
Aug 1
New Moon
Aug 7
First Quarter
Aug 15
Full
Aug 23
Last Quarter
Aug 30
New

Hourly Weather History & Observations

Time (CDT) Temp. Heat Index Dew Point Humidity Pressure Visibility Wind Dir Wind Speed Gust Speed Precip Events Conditions
12:52 AM 60.1 °F - 57.9 °F 93% 30.14 in 10.0 mi Calm Calm - N/A   Clear
1:52 AM 61.0 °F - 57.9 °F 90% 30.15 in 10.0 mi ESE 4.6 mph - N/A   Clear
2:52 AM 60.1 °F - 57.9 °F 93% 30.15 in 10.0 mi ESE 3.5 mph - N/A   Clear
3:52 AM 60.1 °F - 57.0 °F 90% 30.16 in 10.0 mi SE 3.5 mph - N/A   Clear
4:52 AM 57.0 °F - 55.9 °F 96% 30.15 in 10.0 mi East 5.8 mph - N/A   Clear
5:52 AM 57.9 °F - 55.9 °F 93% 30.17 in 10.0 mi East 4.6 mph - N/A   Clear
6:52 AM 59.0 °F - 57.9 °F 96% 30.17 in 9.0 mi SE 3.5 mph - N/A   Clear
7:52 AM 64.0 °F - 61.0 °F 90% 30.20 in 10.0 mi SSE 3.5 mph - N/A   Unknown
7:55 AM 64.0 °F - 61.0 °F 90% 30.21 in 10.0 mi Calm Calm - N/A   Clear
8:52 AM 69.1 °F - 60.1 °F 73% 30.19 in 10.0 mi Variable 4.6 mph - N/A   Clear
9:52 AM 73.0 °F - 60.1 °F 64% 30.19 in 10.0 mi ESE 4.6 mph - N/A   Clear
10:52 AM 75.9 °F - 60.1 °F 58% 30.20 in 10.0 mi SE 5.8 mph - N/A   Clear
11:52 AM 77.0 °F - 57.9 °F 52% 30.20 in 10.0 mi East 5.8 mph - N/A   Clear
12:52 PM 79.0 °F - 59.0 °F 50% 30.19 in 10.0 mi SE 8.1 mph - N/A   Clear
1:52 PM 79.0 °F - 60.1 °F 52% 30.18 in 10.0 mi SSE 6.9 mph - N/A   Clear
2:52 PM 79.0 °F - 60.1 °F 52% 30.17 in 10.0 mi ESE 6.9 mph - N/A   Clear
3:52 PM 80.1 °F 80.9 °F 60.1 °F 50% 30.15 in 10.0 mi South 4.6 mph - N/A   Clear
4:52 PM 81.0 °F 81.3 °F 59.0 °F 47% 30.14 in 10.0 mi East 8.1 mph - N/A   Clear
5:52 PM 79.0 °F - 60.1 °F 52% 30.13 in 10.0 mi East 9.2 mph - N/A   Clear
6:52 PM 77.0 °F - 60.1 °F 56% 30.13 in 10.0 mi SE 5.8 mph - N/A   Clear
7:52 PM 72.0 °F - 62.1 °F 71% 30.13 in 10.0 mi Calm Calm - N/A   Clear
8:52 PM 69.1 °F - 62.1 °F 78% 30.14 in 10.0 mi East 4.6 mph - N/A   Clear
9:52 PM 68.0 °F - 61.0 °F 78% 30.15 in 10.0 mi East 4.6 mph - N/A   Clear
10:52 PM 64.9 °F - 60.1 °F 84% 30.16 in 10.0 mi Calm Calm - N/A   Clear
11:52 PM 66.0 °F - 61.0 °F 84% 30.16 in 10.0 mi Calm Calm - N/A   Clear